STARLINK-11560, 62917

Orbit data source: Space-Track

STARLINK-11560, 62917 is a payload satellite owned by SpaceX/Seattle (US) in LEO that was launched on Sat, 08 Feb 2025 UTC via an FALCON 9 launch vehicle from the Air Force Eastern Test Range (AFETR). Payload-class satellites include a variety of spacecraft equipped with specific instruments for various scientific and technological missions. These include communications satellites like Starlink; space stations such as the ISS; scientific satellites like the Hubble; Earth observation satellites from companies like Planet Labs, Umbra, and HawkEye 360; GPS; miniature CubeSats for education and research; and military/defense satellites.

Loading next visibility...
Identifier
62917, 2025-027L
Orbit
LEO
Country
Flag of USUS
Related business
Manufacturer
SpaceX/Seattle
Mission
Operational Commercial Communications
Bus & Motor
STARLINK V2MD, Unknown motor
Mass
960 kg wet, ~910 kg dry
Launch date (UTC)
2025-02-08 (7 months ago)
Launch vehicle
FALCON 9
Launch site
Air Force Eastern Test Range (AFETR)
Object type
Payload
Rocket body
Debris
Shape & HBR
Box + 2 Pan, 14.5 m
Radar Cross Section
36.964 m², Medium (>0.1 m² and < 1m²)

Expand to show TLE details & history
Last TLE update: 16 hours ago

TLE from 16 hours ago
0 STARLINK-11560
1 62917U 25027L   25258.65218971  .00206409  00000-0  15671-2 0  9995
2 62917  43.0008 322.6987 0002548 272.9645  87.0931 15.70920489 35622
Epoch: 2025-09-15T15:39Z
TLE epoch observation values (Epoch: 2025-09-15T15:39:09.19Z)
Latitude
-0.00005°
Longitude
93.05659°
Altitude
355.95 km
Speed
7.698 km/s
True Right ascension
21h 30m 47s
True Declination
0° 00' 00"
Sunlit
Object was in full shadow at epoch
Visualization orbit readout
Latitude
Unknown
Longitude
Unknown
Altitude
Unknown
Speed
Unknown
Apparent Right ascension
Unknown
Apparent Declination
Unknown
Sunlit
N/A
Visualization observer readout
Local Sidereal Time
00:04:29
Azimuth
Unknown
Elevation
Unknown
Doppler factor
Unknown
Orbital elements
Apogee altitude
359.963 km
Perigee altitude
356.53 km
Semi-major axis
6,736.384 km
Eccentricity
0.00025
Inclination
43.0008°
RAAN
322.6987°
Arg. of periapsis
272.9645°
True anomaly
87.12226°
Mean anomaly
87.0931°
Eccentric anomaly
87.10768°
Mean motion
3.92557 °/min
Orbital period
91.71 mins
BSTAR
0.0015671
Loading maneuver chart data...
Computing Atmospheric mass density...
Loading historical data...
Loading historical data...
Loading historical data...
Loading historical data...
Loading historical data...
Loading historical data...
Loading historical data...

Documentation

Showing up to 5 results
|